This is the latest recevied weather packets stored in our database for station/object p43g-13. If no packets are shown the sender has not sent any weather packets the latest 10 day(s).
| Time | Temp. | Humidity | Pressure | Rain* | Wind** | Luminosity | Snow |
|---|---|---|---|---|---|---|---|
| 1787871515 | 29.44° C | 83% | 1009.7 hPa | 0 mm | - | 2 W/m² | - |
| 1787871215 | 29.44° C | 82% | 1009.5 hPa | 0 mm | - | 3 W/m² | - |
| 1787870914 | 29.44° C | 82% | 1009.4 hPa | 0 mm | - | 6 W/m² | - |
| 1787870615 | 29.44° C | 82% | 1009.5 hPa | 0 mm | - | 11 W/m² | - |
| 1787870314 | 29.44° C | 82% | 1009.5 hPa | 0 mm | - | 16 W/m² | - |
| 1787870015 | 29.44° C | 82% | 1009.4 hPa | 0 mm | - | 23 W/m² | - |
| 1787869715 | 29.44° C | 82% | 1009.1 hPa | 0 mm | - | 27 W/m² | - |
| 1787869414 | 29.44° C | 81% | 1009.6 hPa | 0 mm | - | 31 W/m² | - |
| 1787869114 | 29.44° C | 80% | 1009.6 hPa | 0 mm | - | 39 W/m² | - |
| 1787868802 | 30° C | 80% | 1009.2 hPa | 0 mm | - | 50 W/m² | - |
| 1787868503 | 30° C | 79% | 1009.2 hPa | 0 mm | - | 64 W/m² | - |
| 1787868203 | 30° C | 78% | 1009.4 hPa | 0 mm | - | 74 W/m² | - |
| 1787867891 | 30° C | 79% | 1009.2 hPa | 0 mm | - | 80 W/m² | - |
| 1787867590 | 30° C | 78% | 1009.2 hPa | 0 mm | - | 81 W/m² | - |
| 1787867291 | 30.56° C | 78% | 1009.1 hPa | 0 mm | - | 99 W/m² | - |
| 1787866979 | 30.56° C | 78% | 1009.2 hPa | 0 mm | - | 118 W/m² | - |
| 1787866679 | 30° C | 78% | 1009.2 hPa | 0 mm | - | 131 W/m² | - |
| 1787866379 | 30° C | 78% | 1009.2 hPa | 0 mm | - | 92 W/m² | - |
| 1787866084 | 30.56° C | 78% | 1009.1 hPa | 0 mm | - | 152 W/m² | - |
| 1787865779 | 30.56° C | 76% | 1009 hPa | 0 mm | - | 170 W/m² | - |
| 1787865479 | 30° C | 77% | 1009.2 hPa | 0 mm | - | 214 W/m² | - |
| 1787865360 | 30.56° C | 76% | 1009.1 hPa | 0 mm | - | 161 W/m² | - |
| 1787864879 | 30.56° C | 76% | 1009.1 hPa | 0 mm | - | 236 W/m² | - |
| 1787864579 | 30.56° C | 75% | 1009.1 hPa | 0 mm | - | 247 W/m² | - |
| 1787864279 | 30.56° C | 76% | 1009.3 hPa | 0 mm | - | 264 W/m² | - |
* Rain latest hour (hover to see other rain measurements)
** Current wind speed in m/s (hover to see current wind gust speed)